Ravenna, OH

2:15 AM EDT on May 28, 2017 (GMT -0400)
Ravenna

Weather History for KPOV - December, 2012

Change the Weather History Date:

Tuesday, December 11, 2012

  Actual Average (KCAK) Record (KCAK)
Temperature  
Mean Temperature 33 °F -  
Max Temperature 36 °F 37 °F 62 °F (1979)
Min Temperature 30 °F 25 °F -5 °F (1917)
Degree Days  
Heating Degree Days 32    
Moisture  
Dew Point 28 °F    
Average Humidity 84    
Maximum Humidity 100    
Minimum Humidity 63    
Precipitation  
Precipitation 0.00 in - - ()
Sea Level Pressure  
Sea Level Pressure 30.01 in    
Wind  
Wind Speed 6 mph (West)    
Max Wind Speed 13 mph    
Max Gust Speed 17 mph    
Visibility 9 miles    
Events Rain , Snow    
Averages and records for this station are not official NWS values.
T = Trace of Precipitation, MM = Missing Value Source: NWS Daily Summary

Daily Weather History Graph

Daily Weather History Graph

Search for Another Location

Airport or City:

Trip Planner

Search our weather history database for the weather conditions in past years. The results will help you decide how hot, cold, wet, or windy it might be!

Date:

Astronomy

Dec. 11, 2012 Rise Set
Actual Time 7:40 AM EST 4:56 PM EST
Civil Twilight 7:09 AM EST 5:27 PM EST
Nautical Twilight 6:35 AM EST 6:01 PM EST
Astronomical Twilight 6:01 AM EST 6:35 PM EST
Moon 5:33 AM EST (12/11) 3:34 PM EST (12/11)
Length of Visible Light 10h 17m
Length of Day
9h 15m
Waning Crescent, 4% of the Moon is Illuminated
Dec 11
Waning Crescent
Dec 13
New
Dec 20
First Quarter
Dec 28
Full
Jan 4
Last Quarter

Hourly Weather History & Observations

Time (EST) Temp. Windchill Dew Point Humidity Pressure Visibility Wind Dir Wind Speed Gust Speed Precip Events Conditions
12:15 AM 33.1 °F 28.7 °F 33.3 °F 100% 29.82 in 10.0 mi NW 4.6 mph - N/A   Overcast
12:35 AM 32.9 °F 26.7 °F 32.9 °F 100% 29.82 in 10.0 mi NW 6.9 mph - N/A   Overcast
12:55 AM 32.4 °F 27.9 °F 32.5 °F 100% 29.82 in 5.0 mi NW 4.6 mph - N/A Snow Light Snow
1:15 AM 32.0 °F 27.5 °F 32.2 °F 100% 29.82 in 5.0 mi NW 4.6 mph - N/A Snow Light Snow
1:35 AM 32.0 °F 26.4 °F 32.0 °F 100% 29.82 in 5.0 mi NW 5.8 mph - N/A Rain Rain
1:55 AM 32.0 °F 25.6 °F 32.0 °F 100% 29.83 in 4.0 mi NW 6.9 mph - N/A Rain Light Rain
2:15 AM 32.0 °F 27.5 °F 32.0 °F 100% 29.83 in 5.0 mi NW 4.6 mph - N/A Snow Light Snow
2:35 AM 32.0 °F 28.7 °F 32.0 °F 100% 29.85 in 5.0 mi WNW 3.5 mph - N/A Rain Light Rain
2:55 AM 32.0 °F 26.4 °F 32.2 °F 100% 29.85 in 10.0 mi West 5.8 mph - N/A Snow Light Snow
3:14 AM 32.0 °F 26.4 °F 32.2 °F 100% 29.86 in 10.0 mi WNW 5.8 mph - N/A   Overcast
3:35 AM 32.2 °F 25.8 °F 32.4 °F 100% 29.86 in 10.0 mi West 6.9 mph - N/A   Overcast
3:55 AM 32.0 °F 27.5 °F 32.0 °F 100% 29.86 in 10.0 mi WSW 4.6 mph - N/A   Overcast
4:15 AM 32.0 °F 26.4 °F 32.0 °F 100% 29.87 in 10.0 mi West 5.8 mph - N/A   Overcast
4:35 AM 32.0 °F 27.5 °F 31.8 °F 99% 29.88 in 10.0 mi West 4.6 mph - N/A   Overcast
4:55 AM 32.0 °F 27.5 °F 31.6 °F 99% 29.89 in 10.0 mi WSW 4.6 mph - N/A   Overcast
5:15 AM 32.0 °F 25.6 °F 31.8 °F 99% 29.89 in 10.0 mi WSW 6.9 mph - N/A   Overcast
5:35 AM 32.0 °F 26.4 °F 31.1 °F 96% 29.90 in 10.0 mi WSW 5.8 mph - N/A   Overcast
5:55 AM 32.0 °F 26.4 °F 30.9 °F 96% 29.91 in 10.0 mi WSW 5.8 mph - N/A   Overcast
6:15 AM 32.0 °F 26.4 °F 31.5 °F 98% 29.92 in 10.0 mi WSW 5.8 mph - N/A   Overcast
6:35 AM 32.0 °F 27.5 °F 31.6 °F 99% 29.93 in 10.0 mi WSW 4.6 mph - N/A   Overcast
6:55 AM 32.0 °F 26.4 °F 31.6 °F 99% 29.93 in 10.0 mi WSW 5.8 mph - N/A   Overcast
7:15 AM 32.0 °F 26.4 °F 30.9 °F 96% 29.94 in 10.0 mi WSW 5.8 mph - N/A   Overcast
7:35 AM 32.0 °F 27.5 °F 30.4 °F 94% 29.95 in 10.0 mi WSW 4.6 mph - N/A   Overcast
7:55 AM 32.0 °F 25.6 °F 30.0 °F 92% 29.96 in 10.0 mi West 6.9 mph - N/A   Overcast
8:15 AM 32.0 °F 26.4 °F 30.0 °F 92% 29.97 in 10.0 mi WSW 5.8 mph - N/A   Overcast
8:35 AM 32.0 °F 27.5 °F 29.7 °F 91% 29.98 in 10.0 mi WSW 4.6 mph - N/A   Overcast
8:55 AM 32.0 °F 26.4 °F 29.5 °F 90% 29.98 in 10.0 mi WSW 5.8 mph - N/A   Overcast
9:15 AM 32.7 °F 28.3 °F 29.7 °F 88% 29.99 in 10.0 mi WSW 4.6 mph - N/A   Overcast
9:35 AM 32.5 °F 27.1 °F 29.1 °F 87% 30.00 in 10.0 mi WSW 5.8 mph - N/A   Overcast
9:55 AM 32.5 °F 26.2 °F 28.9 °F 87% 30.01 in 10.0 mi WSW 6.9 mph - N/A   Overcast
10:15 AM 33.1 °F 27.7 °F 29.1 °F 85% 30.01 in 10.0 mi West 5.8 mph - N/A   Overcast
10:35 AM 33.3 °F 27.9 °F 29.8 °F 87% 30.02 in 10.0 mi West 5.8 mph - N/A Snow Light Snow
10:55 AM 32.4 °F 23.0 °F 29.8 °F 90% 30.03 in 1.5 mi West 12.7 mph 17.3 mph N/A Snow Light Snow
11:15 AM 32.0 °F 26.4 °F 31.6 °F 99% 30.03 in 7.0 mi WNW 5.8 mph - N/A   Overcast
11:35 AM 32.4 °F 24.6 °F 29.7 °F 90% 30.03 in 10.0 mi WSW 9.2 mph - N/A   Scattered Clouds
12:15 PM 33.8 °F 25.8 °F 27.9 °F 79% 30.03 in 10.0 mi West 10.4 mph - N/A   Overcast
12:35 PM 34.2 °F 26.8 °F 27.5 °F 77% 30.03 in 10.0 mi West 9.2 mph - N/A   Overcast
12:55 PM 34.5 °F 27.9 °F 27.5 °F 76% 30.03 in 10.0 mi WSW 8.1 mph - N/A   Overcast
1:15 PM 34.7 °F 28.8 °F 26.4 °F 72% 30.03 in 10.0 mi West 6.9 mph - N/A   Overcast
1:35 PM 36.0 °F 29.6 °F 26.8 °F 69% 30.03 in 10.0 mi West 8.1 mph - N/A   Overcast
1:55 PM 35.2 °F 30.3 °F 26.6 °F 71% 30.03 in 10.0 mi West 5.8 mph - N/A   Overcast
2:15 PM 35.6 °F 29.9 °F 25.5 °F 67% 30.04 in 10.0 mi West 6.9 mph - N/A   Overcast
2:35 PM 35.4 °F 29.7 °F 24.1 °F 63% 30.04 in 10.0 mi WSW 6.9 mph - N/A   Mostly Cloudy
2:54 PM 35.2 °F 28.1 °F 24.4 °F 65% 30.05 in 10.0 mi West 9.2 mph - N/A   Overcast
3:15 PM 35.1 °F 29.3 °F 24.6 °F 66% 30.05 in 10.0 mi WSW 6.9 mph - N/A   Overcast
3:35 PM 34.9 °F 27.7 °F 25.0 °F 67% 30.05 in 10.0 mi West 9.2 mph - N/A   Overcast
3:54 PM 34.7 °F 27.5 °F 25.3 °F 69% 30.06 in 10.0 mi West 9.2 mph - N/A   Overcast
4:15 PM 34.3 °F 27.7 °F 25.3 °F 70% 30.07 in 10.0 mi WSW 8.1 mph - N/A   Overcast
4:35 PM 34.2 °F 29.0 °F 25.3 °F 70% 30.07 in 10.0 mi WSW 5.8 mph - N/A   Overcast
4:55 PM 34.2 °F 30.0 °F 25.9 °F 72% 30.08 in 10.0 mi WSW 4.6 mph - N/A   Overcast
5:15 PM 34.0 °F 31.0 °F 25.9 °F 72% 30.09 in 10.0 mi WSW 3.5 mph - N/A   Overcast
5:35 PM 33.8 °F - 26.4 °F 74% 30.09 in 10.0 mi Calm Calm - N/A Rain Light Rain
5:55 PM 33.8 °F 27.7 °F 26.6 °F 75% 30.09 in 10.0 mi WSW 6.9 mph - N/A   Overcast
6:15 PM 33.4 °F 29.1 °F 26.1 °F 74% 30.10 in 10.0 mi WSW 4.6 mph - N/A   Overcast
6:35 PM 32.5 °F 28.1 °F 25.7 °F 76% 30.10 in 10.0 mi WSW 4.6 mph - N/A   Mostly Cloudy
6:55 PM 32.2 °F 27.7 °F 25.7 °F 77% 30.11 in 10.0 mi WSW 4.6 mph - N/A   Scattered Clouds
7:15 PM 32.2 °F - 25.9 °F 78% 30.11 in 10.0 mi Calm Calm - N/A   Overcast
7:35 PM 32.0 °F 28.7 °F 26.4 °F 80% 30.12 in 10.0 mi WSW 3.5 mph - N/A   Overcast
7:54 PM 32.0 °F 26.4 °F 26.1 °F 79% 30.13 in 10.0 mi WSW 5.8 mph - N/A   Overcast
8:15 PM 32.2 °F 25.8 °F 25.7 °F 77% 30.14 in 10.0 mi WSW 6.9 mph - N/A   Overcast
8:35 PM 32.0 °F 26.4 °F 25.7 °F 78% 30.14 in 10.0 mi WSW 5.8 mph - N/A   Overcast
8:55 PM 32.0 °F 25.6 °F 25.0 °F 75% 30.14 in 10.0 mi WSW 6.9 mph - N/A   Overcast
9:15 PM 32.0 °F 25.6 °F 21.9 °F 66% 30.15 in 10.0 mi WSW 6.9 mph - N/A   Overcast
9:35 PM 32.0 °F 25.6 °F 22.1 °F 67% 30.15 in 10.0 mi WSW 6.9 mph - N/A   Scattered Clouds
9:55 PM 31.3 °F 26.6 °F 22.1 °F 69% 30.16 in 10.0 mi WSW 4.6 mph - N/A   Clear
10:15 PM 31.1 °F 25.4 °F 21.7 °F 68% 30.16 in 10.0 mi WSW 5.8 mph - N/A   Scattered Clouds
10:35 PM 30.9 °F 26.2 °F 21.4 °F 68% 30.17 in 10.0 mi WSW 4.6 mph - N/A   Clear
10:55 PM 30.4 °F 25.6 °F 21.4 °F 69% 30.16 in 10.0 mi WSW 4.6 mph - N/A   Clear
11:15 PM 30.2 °F 24.3 °F 21.6 °F 70% 30.17 in 10.0 mi SW 5.8 mph - N/A   Clear
11:35 PM 30.2 °F 22.6 °F 21.2 °F 69% 30.18 in 10.0 mi WSW 8.1 mph - N/A   Clear
11:55 PM 30.0 °F 22.4 °F 21.6 °F 71% 30.19 in 10.0 mi WSW 8.1 mph - N/A   Clear